#datetime,building,power
2022-08-30T00:00:00,sdl,4.85
2022-08-30T00:01:00,sdl,4.85
2022-08-30T00:02:00,sdl,4.79
2022-08-30T00:03:00,sdl,4.85
2022-08-30T00:04:00,sdl,5.13
2022-08-30T00:05:00,sdl,4.84
2022-08-30T00:06:00,sdl,4.79
2022-08-30T00:07:00,sdl,4.78
2022-08-30T00:08:00,sdl,4.74
2022-08-30T00:09:00,sdl,5.15
2022-08-30T00:10:00,sdl,5.17
2022-08-30T00:11:00,sdl,5.11
2022-08-30T00:12:00,sdl,5.16
2022-08-30T00:13:00,sdl,5.08
2022-08-30T00:14:00,sdl,5.00
2022-08-30T00:15:00,sdl,4.35
2022-08-30T00:16:00,sdl,4.51
2022-08-30T00:17:00,sdl,4.56
2022-08-30T00:18:00,sdl,4.77
2022-08-30T00:19:00,sdl,4.77
2022-08-30T00:20:00,sdl,5.55
2022-08-30T00:21:00,sdl,5.54
2022-08-30T00:22:00,sdl,5.52
2022-08-30T00:23:00,sdl,5.58
2022-08-30T00:24:00,sdl,5.58
2022-08-30T00:25:00,sdl,5.92
2022-08-30T00:26:00,sdl,5.54
2022-08-30T00:27:00,sdl,5.56
2022-08-30T00:28:00,sdl,5.53
2022-08-30T00:29:00,sdl,5.49
2022-08-30T00:30:00,sdl,5.54
2022-08-30T00:31:00,sdl,5.53
2022-08-30T00:32:00,sdl,5.48
2022-08-30T00:33:00,sdl,5.47
2022-08-30T00:34:00,sdl,5.47
2022-08-30T00:35:00,sdl,5.44
2022-08-30T00:36:00,sdl,5.45
2022-08-30T00:37:00,sdl,5.55
2022-08-30T00:38:00,sdl,7.86
2022-08-30T00:39:00,sdl,7.90
2022-08-30T00:40:00,sdl,7.76
2022-08-30T00:41:00,sdl,8.08
2022-08-30T00:42:00,sdl,7.70
2022-08-30T00:43:00,sdl,7.63
2022-08-30T00:44:00,sdl,7.72
2022-08-30T00:45:00,sdl,7.70
2022-08-30T00:46:00,sdl,7.69
2022-08-30T00:47:00,sdl,7.60
2022-08-30T00:48:00,sdl,7.59
2022-08-30T00:49:00,sdl,7.75
2022-08-30T00:50:00,sdl,7.74
2022-08-30T00:51:00,sdl,7.76
2022-08-30T00:52:00,sdl,7.73
2022-08-30T00:53:00,sdl,5.54
2022-08-30T00:54:00,sdl,5.44
2022-08-30T00:55:00,sdl,5.83
2022-08-30T00:56:00,sdl,5.88
2022-08-30T00:57:00,sdl,5.55
2022-08-30T00:58:00,sdl,5.61
2022-08-30T00:59:00,sdl,5.55
2022-08-30T01:00:00,sdl,5.62
2022-08-30T01:01:00,sdl,5.42
2022-08-30T01:02:00,sdl,5.37
2022-08-30T01:03:00,sdl,5.38
2022-08-30T01:04:00,sdl,5.37
2022-08-30T01:05:00,sdl,5.28
2022-08-30T01:06:00,sdl,4.52
2022-08-30T01:07:00,sdl,4.51
2022-08-30T01:08:00,sdl,4.42
2022-08-30T01:09:00,sdl,4.47
2022-08-30T01:10:00,sdl,4.43
2022-08-30T01:11:00,sdl,5.24
2022-08-30T01:12:00,sdl,5.20
2022-08-30T01:13:00,sdl,5.04
2022-08-30T01:14:00,sdl,4.95
2022-08-30T01:15:00,sdl,5.05
2022-08-30T01:16:00,sdl,5.06
2022-08-30T01:17:00,sdl,7.33
2022-08-30T01:18:00,sdl,7.24
2022-08-30T01:19:00,sdl,7.31
2022-08-30T01:20:00,sdl,7.31
2022-08-30T01:21:00,sdl,7.39
2022-08-30T01:22:00,sdl,7.46
2022-08-30T01:23:00,sdl,7.44
2022-08-30T01:24:00,sdl,7.72
2022-08-30T01:25:00,sdl,7.72
2022-08-30T01:26:00,sdl,7.32
2022-08-30T01:27:00,sdl,5.03
2022-08-30T01:28:00,sdl,4.69
2022-08-30T01:29:00,sdl,4.67
2022-08-30T01:30:00,sdl,4.69
2022-08-30T01:31:00,sdl,4.77
2022-08-30T01:32:00,sdl,4.69
2022-08-30T01:33:00,sdl,4.65
2022-08-30T01:34:00,sdl,4.77
2022-08-30T01:35:00,sdl,5.59
2022-08-30T01:36:00,sdl,4.88
2022-08-30T01:37:00,sdl,4.81
2022-08-30T01:38:00,sdl,4.80
2022-08-30T01:39:00,sdl,4.85
2022-08-30T01:40:00,sdl,4.75
2022-08-30T01:41:00,sdl,4.81
2022-08-30T01:42:00,sdl,4.86
2022-08-30T01:43:00,sdl,5.19
2022-08-30T01:44:00,sdl,5.12
2022-08-30T01:45:00,sdl,5.40
2022-08-30T01:46:00,sdl,7.19
2022-08-30T01:47:00,sdl,7.20
2022-08-30T01:48:00,sdl,7.28
2022-08-30T01:49:00,sdl,7.24
2022-08-30T01:50:00,sdl,7.26
2022-08-30T01:51:00,sdl,7.23
2022-08-30T01:52:00,sdl,7.25
2022-08-30T01:53:00,sdl,7.27
2022-08-30T01:54:00,sdl,7.24
2022-08-30T01:55:00,sdl,7.78
2022-08-30T01:56:00,sdl,7.77
2022-08-30T01:57:00,sdl,7.68
2022-08-30T01:58:00,sdl,6.56
2022-08-30T01:59:00,sdl,6.58
2022-08-30T02:00:00,sdl,6.57
2022-08-30T02:01:00,sdl,6.64
2022-08-30T02:02:00,sdl,4.23
2022-08-30T02:03:00,sdl,5.10
2022-08-30T02:04:00,sdl,5.10
2022-08-30T02:05:00,sdl,5.11
2022-08-30T02:06:00,sdl,5.11
2022-08-30T02:07:00,sdl,5.06
2022-08-30T02:08:00,sdl,5.19
2022-08-30T02:09:00,sdl,5.15
2022-08-30T02:10:00,sdl,5.17
2022-08-30T02:11:00,sdl,5.19
2022-08-30T02:12:00,sdl,5.13
2022-08-30T02:13:00,sdl,5.14
2022-08-30T02:14:00,sdl,5.21
2022-08-30T02:15:00,sdl,5.28
2022-08-30T02:16:00,sdl,5.18
2022-08-30T02:17:00,sdl,5.23
2022-08-30T02:18:00,sdl,5.07
2022-08-30T02:19:00,sdl,5.08
2022-08-30T02:20:00,sdl,5.05
2022-08-30T02:21:00,sdl,5.10
2022-08-30T02:22:00,sdl,5.26
2022-08-30T02:23:00,sdl,4.98
2022-08-30T02:24:00,sdl,4.94
2022-08-30T02:25:00,sdl,5.01
2022-08-30T02:26:00,sdl,5.55
2022-08-30T02:27:00,sdl,5.51
2022-08-30T02:28:00,sdl,5.16
2022-08-30T02:29:00,sdl,5.16
2022-08-30T02:30:00,sdl,5.18
2022-08-30T02:31:00,sdl,5.22
2022-08-30T02:32:00,sdl,5.24
2022-08-30T02:33:00,sdl,5.25
2022-08-30T02:34:00,sdl,5.26
2022-08-30T02:35:00,sdl,5.60
2022-08-30T02:36:00,sdl,5.32
2022-08-30T02:37:00,sdl,5.27
2022-08-30T02:38:00,sdl,5.33
2022-08-30T02:39:00,sdl,5.32
2022-08-30T02:40:00,sdl,5.32
2022-08-30T02:41:00,sdl,5.13
2022-08-30T02:42:00,sdl,7.38
2022-08-30T02:43:00,sdl,7.37
2022-08-30T02:44:00,sdl,7.40
2022-08-30T02:45:00,sdl,7.41
2022-08-30T02:46:00,sdl,7.44
2022-08-30T02:47:00,sdl,7.46
2022-08-30T02:48:00,sdl,7.54
2022-08-30T02:49:00,sdl,7.47
2022-08-30T02:50:00,sdl,7.52
2022-08-30T02:51:00,sdl,6.55
2022-08-30T02:52:00,sdl,7.38
2022-08-30T02:53:00,sdl,7.52
2022-08-30T02:54:00,sdl,7.57
2022-08-30T02:55:00,sdl,7.53
2022-08-30T02:56:00,sdl,6.11
2022-08-30T02:57:00,sdl,6.15
2022-08-30T02:58:00,sdl,6.57
2022-08-30T02:59:00,sdl,6.17
2022-08-30T03:00:00,sdl,5.22
2022-08-30T03:01:00,sdl,5.31
2022-08-30T03:02:00,sdl,5.31
2022-08-30T03:03:00,sdl,5.29
2022-08-30T03:04:00,sdl,5.32
2022-08-30T03:05:00,sdl,5.25
2022-08-30T03:06:00,sdl,5.27
2022-08-30T03:07:00,sdl,5.33
2022-08-30T03:08:00,sdl,5.29
2022-08-30T03:09:00,sdl,5.40
2022-08-30T03:10:00,sdl,5.35
2022-08-30T03:11:00,sdl,5.35
2022-08-30T03:12:00,sdl,5.25
2022-08-30T03:13:00,sdl,5.39
2022-08-30T03:14:00,sdl,5.32
2022-08-30T03:15:00,sdl,5.41
2022-08-30T03:16:00,sdl,5.36
2022-08-30T03:17:00,sdl,5.49
2022-08-30T03:18:00,sdl,5.46
2022-08-30T03:19:00,sdl,5.42
2022-08-30T03:20:00,sdl,5.31
2022-08-30T03:21:00,sdl,5.29
2022-08-30T03:22:00,sdl,5.25
2022-08-30T03:23:00,sdl,5.26
2022-08-30T03:24:00,sdl,5.14
2022-08-30T03:25:00,sdl,5.04
2022-08-30T03:26:00,sdl,5.06
2022-08-30T03:27:00,sdl,4.34
2022-08-30T03:28:00,sdl,4.68
2022-08-30T03:29:00,sdl,4.69
2022-08-30T03:30:00,sdl,4.83
2022-08-30T03:31:00,sdl,7.02
2022-08-30T03:32:00,sdl,7.05
2022-08-30T03:33:00,sdl,7.05
2022-08-30T03:34:00,sdl,7.11
2022-08-30T03:35:00,sdl,7.16
2022-08-30T03:36:00,sdl,7.14
2022-08-30T03:37:00,sdl,7.06
2022-08-30T03:38:00,sdl,7.07
2022-08-30T03:39:00,sdl,7.36
2022-08-30T03:40:00,sdl,7.05
2022-08-30T03:41:00,sdl,7.05
2022-08-30T03:42:00,sdl,7.06
2022-08-30T03:43:00,sdl,7.00
2022-08-30T03:44:00,sdl,6.18
2022-08-30T03:45:00,sdl,3.96
2022-08-30T03:46:00,sdl,3.90
2022-08-30T03:47:00,sdl,3.99
2022-08-30T03:48:00,sdl,4.03
2022-08-30T03:49:00,sdl,4.92
2022-08-30T03:50:00,sdl,4.92
2022-08-30T03:51:00,sdl,5.01
2022-08-30T03:52:00,sdl,5.35
2022-08-30T03:53:00,sdl,4.96
2022-08-30T03:54:00,sdl,4.90
2022-08-30T03:55:00,sdl,4.97
2022-08-30T03:56:00,sdl,4.87
2022-08-30T03:57:00,sdl,5.16
2022-08-30T03:58:00,sdl,4.93
2022-08-30T03:59:00,sdl,4.60
2022-08-30T04:00:00,sdl,4.67
2022-08-30T04:01:00,sdl,4.65
2022-08-30T04:02:00,sdl,6.86
2022-08-30T04:03:00,sdl,6.75
2022-08-30T04:04:00,sdl,6.70
2022-08-30T04:05:00,sdl,6.78
2022-08-30T04:06:00,sdl,6.93
2022-08-30T04:07:00,sdl,7.03
2022-08-30T04:08:00,sdl,7.01
2022-08-30T04:09:00,sdl,7.05
2022-08-30T04:10:00,sdl,7.00
2022-08-30T04:11:00,sdl,7.12
2022-08-30T04:12:00,sdl,7.12
2022-08-30T04:13:00,sdl,7.11
2022-08-30T04:14:00,sdl,4.89
2022-08-30T04:15:00,sdl,4.87
2022-08-30T04:16:00,sdl,4.71
2022-08-30T04:17:00,sdl,4.74
2022-08-30T04:18:00,sdl,5.13
2022-08-30T04:19:00,sdl,4.70
2022-08-30T04:20:00,sdl,4.74
2022-08-30T04:21:00,sdl,4.80
2022-08-30T04:22:00,sdl,4.75
2022-08-30T04:23:00,sdl,4.79
2022-08-30T04:24:00,sdl,4.80
2022-08-30T04:25:00,sdl,4.79
2022-08-30T04:26:00,sdl,4.86
2022-08-30T04:27:00,sdl,4.52
2022-08-30T04:28:00,sdl,4.89
2022-08-30T04:29:00,sdl,4.67
2022-08-30T04:30:00,sdl,4.80
2022-08-30T04:31:00,sdl,4.33
2022-08-30T04:32:00,sdl,4.39
2022-08-30T04:33:00,sdl,4.37
2022-08-30T04:34:00,sdl,4.37
2022-08-30T04:35:00,sdl,4.29
2022-08-30T04:36:00,sdl,4.70
2022-08-30T04:37:00,sdl,3.37
2022-08-30T04:38:00,sdl,3.39
2022-08-30T04:39:00,sdl,3.38
2022-08-30T04:40:00,sdl,3.49
2022-08-30T04:41:00,sdl,3.93
2022-08-30T04:42:00,sdl,4.79
2022-08-30T04:43:00,sdl,7.42
2022-08-30T04:44:00,sdl,6.86
2022-08-30T04:45:00,sdl,6.95
2022-08-30T04:46:00,sdl,6.94
2022-08-30T04:47:00,sdl,6.88
2022-08-30T04:48:00,sdl,6.90
2022-08-30T04:49:00,sdl,6.85
2022-08-30T04:50:00,sdl,6.95
2022-08-30T04:51:00,sdl,7.02
2022-08-30T04:52:00,sdl,6.96
2022-08-30T04:53:00,sdl,7.04
2022-08-30T04:54:00,sdl,6.92
2022-08-30T04:55:00,sdl,7.08
2022-08-30T04:56:00,sdl,7.08
2022-08-30T04:57:00,sdl,6.95
2022-08-30T04:58:00,sdl,7.35
2022-08-30T04:59:00,sdl,5.15
2022-08-30T05:00:00,sdl,4.77
2022-08-30T05:01:00,sdl,4.77
2022-08-30T05:02:00,sdl,4.81
2022-08-30T05:03:00,sdl,4.83
2022-08-30T05:04:00,sdl,4.85
2022-08-30T05:05:00,sdl,4.85
2022-08-30T05:06:00,sdl,4.85
2022-08-30T05:07:00,sdl,4.85
2022-08-30T05:08:00,sdl,4.80
2022-08-30T05:09:00,sdl,4.77
2022-08-30T05:10:00,sdl,4.87
2022-08-30T05:11:00,sdl,4.79
2022-08-30T05:12:00,sdl,4.74
2022-08-30T05:13:00,sdl,4.63
2022-08-30T05:14:00,sdl,4.84
2022-08-30T05:15:00,sdl,4.83
2022-08-30T05:16:00,sdl,4.80
2022-08-30T05:17:00,sdl,4.77
2022-08-30T05:18:00,sdl,4.81
2022-08-30T05:19:00,sdl,4.70
2022-08-30T05:20:00,sdl,4.70
2022-08-30T05:21:00,sdl,4.69
2022-08-30T05:22:00,sdl,4.83
2022-08-30T05:23:00,sdl,4.90
2022-08-30T05:24:00,sdl,4.91
2022-08-30T05:25:00,sdl,5.54
2022-08-30T05:26:00,sdl,4.78
2022-08-30T05:27:00,sdl,4.93
2022-08-30T05:28:00,sdl,4.95
2022-08-30T05:29:00,sdl,4.82
2022-08-30T05:30:00,sdl,4.83
2022-08-30T05:31:00,sdl,4.76
2022-08-30T05:32:00,sdl,5.00
2022-08-30T05:33:00,sdl,4.26
2022-08-30T05:34:00,sdl,3.87
2022-08-30T05:35:00,sdl,3.86
2022-08-30T05:36:00,sdl,3.85
2022-08-30T05:37:00,sdl,5.92
2022-08-30T05:38:00,sdl,6.81
2022-08-30T05:39:00,sdl,6.72
2022-08-30T05:40:00,sdl,6.71
2022-08-30T05:41:00,sdl,6.74
2022-08-30T05:42:00,sdl,6.89
2022-08-30T05:43:00,sdl,6.89
2022-08-30T05:44:00,sdl,6.89
2022-08-30T05:45:00,sdl,6.86
2022-08-30T05:46:00,sdl,6.90
2022-08-30T05:47:00,sdl,7.04
2022-08-30T05:48:00,sdl,7.65
2022-08-30T05:49:00,sdl,7.00
2022-08-30T05:50:00,sdl,4.82
2022-08-30T05:51:00,sdl,4.75
2022-08-30T05:52:00,sdl,4.75
2022-08-30T05:53:00,sdl,4.73
2022-08-30T05:54:00,sdl,4.72
2022-08-30T05:55:00,sdl,4.71
2022-08-30T05:56:00,sdl,4.74
2022-08-30T05:57:00,sdl,4.22
2022-08-30T05:58:00,sdl,4.26
2022-08-30T05:59:00,sdl,4.21
2022-08-30T06:00:00,sdl,4.21
2022-08-30T06:01:00,sdl,5.49
2022-08-30T06:02:00,sdl,5.89
2022-08-30T06:03:00,sdl,5.81
2022-08-30T06:04:00,sdl,5.38
2022-08-30T06:05:00,sdl,5.35
2022-08-30T06:06:00,sdl,5.44
2022-08-30T06:07:00,sdl,5.38
2022-08-30T06:08:00,sdl,5.50
2022-08-30T06:09:00,sdl,5.48
2022-08-30T06:10:00,sdl,5.41
2022-08-30T06:11:00,sdl,5.23
2022-08-30T06:12:00,sdl,5.67
2022-08-30T06:13:00,sdl,6.09
2022-08-30T06:14:00,sdl,5.64
2022-08-30T06:15:00,sdl,6.46
2022-08-30T06:16:00,sdl,9.23
2022-08-30T06:17:00,sdl,10.03
2022-08-30T06:18:00,sdl,10.13
2022-08-30T06:19:00,sdl,10.25
2022-08-30T06:20:00,sdl,10.40
2022-08-30T06:21:00,sdl,12.83
2022-08-30T06:22:00,sdl,12.99
2022-08-30T06:23:00,sdl,13.11
2022-08-30T06:24:00,sdl,13.10
2022-08-30T06:25:00,sdl,13.20
2022-08-30T06:26:00,sdl,13.14
2022-08-30T06:27:00,sdl,13.23
2022-08-30T06:28:00,sdl,13.40
2022-08-30T06:29:00,sdl,15.35
2022-08-30T06:30:00,sdl,15.41
2022-08-30T06:31:00,sdl,15.38
2022-08-30T06:32:00,sdl,15.51
2022-08-30T06:33:00,sdl,15.48
2022-08-30T06:34:00,sdl,16.37
2022-08-30T06:35:00,sdl,16.40
2022-08-30T06:36:00,sdl,16.43
2022-08-30T06:37:00,sdl,16.56
2022-08-30T06:38:00,sdl,14.56
2022-08-30T06:39:00,sdl,14.95
2022-08-30T06:40:00,sdl,14.88
2022-08-30T06:41:00,sdl,14.81
2022-08-30T06:42:00,sdl,14.43
2022-08-30T06:43:00,sdl,14.55
2022-08-30T06:44:00,sdl,14.47
2022-08-30T06:45:00,sdl,14.42
2022-08-30T06:46:00,sdl,14.51
2022-08-30T06:47:00,sdl,14.60
2022-08-30T06:48:00,sdl,14.55
2022-08-30T06:49:00,sdl,14.50
2022-08-30T06:50:00,sdl,14.45
2022-08-30T06:51:00,sdl,14.47
2022-08-30T06:52:00,sdl,14.53
2022-08-30T06:53:00,sdl,14.54
2022-08-30T06:54:00,sdl,14.60
2022-08-30T06:55:00,sdl,14.51
2022-08-30T06:56:00,sdl,14.45
2022-08-30T06:57:00,sdl,14.59
2022-08-30T06:58:00,sdl,14.77
2022-08-30T06:59:00,sdl,14.78
2022-08-30T07:00:00,sdl,14.81
2022-08-30T07:01:00,sdl,14.77
2022-08-30T07:02:00,sdl,14.86
2022-08-30T07:03:00,sdl,14.89
2022-08-30T07:04:00,sdl,14.93
2022-08-30T07:05:00,sdl,14.99
2022-08-30T07:06:00,sdl,14.99
2022-08-30T07:07:00,sdl,14.89
2022-08-30T07:08:00,sdl,15.00
2022-08-30T07:09:00,sdl,15.35
2022-08-30T07:10:00,sdl,17.09
2022-08-30T07:11:00,sdl,17.10
2022-08-30T07:12:00,sdl,17.03
2022-08-30T07:13:00,sdl,17.08
2022-08-30T07:14:00,sdl,16.95
2022-08-30T07:15:00,sdl,17.00
2022-08-30T07:16:00,sdl,16.97
2022-08-30T07:17:00,sdl,16.91
2022-08-30T07:18:00,sdl,16.98
2022-08-30T07:19:00,sdl,16.93
2022-08-30T07:20:00,sdl,16.94
2022-08-30T07:21:00,sdl,16.07
2022-08-30T07:22:00,sdl,14.27
2022-08-30T07:23:00,sdl,13.83
2022-08-30T07:24:00,sdl,13.83
2022-08-30T07:25:00,sdl,14.03
2022-08-30T07:26:00,sdl,14.82
2022-08-30T07:27:00,sdl,14.90
2022-08-30T07:28:00,sdl,14.75
2022-08-30T07:29:00,sdl,14.79
2022-08-30T07:30:00,sdl,14.85
2022-08-30T07:31:00,sdl,15.31
2022-08-30T07:32:00,sdl,14.89
2022-08-30T07:33:00,sdl,14.89
2022-08-30T07:34:00,sdl,14.91
2022-08-30T07:35:00,sdl,14.90
2022-08-30T07:36:00,sdl,15.35
2022-08-30T07:37:00,sdl,15.07
2022-08-30T07:38:00,sdl,15.04
2022-08-30T07:39:00,sdl,17.61
2022-08-30T07:40:00,sdl,17.63
2022-08-30T07:41:00,sdl,17.27
2022-08-30T07:42:00,sdl,17.35
2022-08-30T07:43:00,sdl,17.41
2022-08-30T07:44:00,sdl,17.36
2022-08-30T07:45:00,sdl,17.34
2022-08-30T07:46:00,sdl,17.34
2022-08-30T07:47:00,sdl,17.36
2022-08-30T07:48:00,sdl,17.38
2022-08-30T07:49:00,sdl,17.23
2022-08-30T07:50:00,sdl,17.14
2022-08-30T07:51:00,sdl,17.30
2022-08-30T07:52:00,sdl,17.30
2022-08-30T07:53:00,sdl,17.37
2022-08-30T07:54:00,sdl,15.14
2022-08-30T07:55:00,sdl,15.22
2022-08-30T07:56:00,sdl,15.32
2022-08-30T07:57:00,sdl,15.24
2022-08-30T07:58:00,sdl,15.37
2022-08-30T07:59:00,sdl,14.85
2022-08-30T08:00:00,sdl,14.93
2022-08-30T08:01:00,sdl,14.88
2022-08-30T08:02:00,sdl,14.61
2022-08-30T08:03:00,sdl,14.97
2022-08-30T08:04:00,sdl,14.66
2022-08-30T08:05:00,sdl,14.56
2022-08-30T08:06:00,sdl,14.54
2022-08-30T08:07:00,sdl,14.67
2022-08-30T08:08:00,sdl,14.64
2022-08-30T08:09:00,sdl,14.68
2022-08-30T08:10:00,sdl,15.09
2022-08-30T08:11:00,sdl,14.90
2022-08-30T08:12:00,sdl,14.42
2022-08-30T08:13:00,sdl,15.65
2022-08-30T08:14:00,sdl,15.78
2022-08-30T08:15:00,sdl,15.79
2022-08-30T08:16:00,sdl,15.58
2022-08-30T08:17:00,sdl,15.89
2022-08-30T08:18:00,sdl,15.66
2022-08-30T08:19:00,sdl,15.78
2022-08-30T08:20:00,sdl,15.63
2022-08-30T08:21:00,sdl,15.65
2022-08-30T08:22:00,sdl,17.91
2022-08-30T08:23:00,sdl,17.76
2022-08-30T08:24:00,sdl,17.83
2022-08-30T08:25:00,sdl,17.63
2022-08-30T08:26:00,sdl,17.57
2022-08-30T08:27:00,sdl,17.70
2022-08-30T08:28:00,sdl,17.73
2022-08-30T08:29:00,sdl,17.80
2022-08-30T08:30:00,sdl,17.96
2022-08-30T08:31:00,sdl,17.95
2022-08-30T08:32:00,sdl,17.99
2022-08-30T08:33:00,sdl,18.13
2022-08-30T08:34:00,sdl,18.14
2022-08-30T08:35:00,sdl,18.08
2022-08-30T08:36:00,sdl,17.89
2022-08-30T08:37:00,sdl,17.98
2022-08-30T08:38:00,sdl,17.97
2022-08-30T08:39:00,sdl,17.54
2022-08-30T08:40:00,sdl,17.71
2022-08-30T08:41:00,sdl,17.84
2022-08-30T08:42:00,sdl,17.79
2022-08-30T08:43:00,sdl,15.75
2022-08-30T08:44:00,sdl,16.14
2022-08-30T08:45:00,sdl,16.18
2022-08-30T08:46:00,sdl,16.33
2022-08-30T08:47:00,sdl,15.98
2022-08-30T08:48:00,sdl,16.09
2022-08-30T08:49:00,sdl,16.02
2022-08-30T08:50:00,sdl,15.98
2022-08-30T08:51:00,sdl,15.89
2022-08-30T08:52:00,sdl,15.39
2022-08-30T08:53:00,sdl,15.61
2022-08-30T08:54:00,sdl,14.93
2022-08-30T08:55:00,sdl,14.87
2022-08-30T08:56:00,sdl,14.82
2022-08-30T08:57:00,sdl,14.82
2022-08-30T08:58:00,sdl,14.68
2022-08-30T08:59:00,sdl,14.84
2022-08-30T09:00:00,sdl,14.69
2022-08-30T09:01:00,sdl,14.78
2022-08-30T09:02:00,sdl,14.84
2022-08-30T09:03:00,sdl,14.76
2022-08-30T09:04:00,sdl,15.11
2022-08-30T09:05:00,sdl,17.38
2022-08-30T09:06:00,sdl,17.54
2022-08-30T09:07:00,sdl,17.56
2022-08-30T09:08:00,sdl,17.53
2022-08-30T09:09:00,sdl,17.82
2022-08-30T09:10:00,sdl,17.74
2022-08-30T09:11:00,sdl,18.44
2022-08-30T09:12:00,sdl,18.08
2022-08-30T09:13:00,sdl,18.45
2022-08-30T09:14:00,sdl,19.55
2022-08-30T09:15:00,sdl,18.51
2022-08-30T09:16:00,sdl,18.15
2022-08-30T09:17:00,sdl,15.95
2022-08-30T09:18:00,sdl,16.26
2022-08-30T09:19:00,sdl,16.01
2022-08-30T09:20:00,sdl,15.35
2022-08-30T09:21:00,sdl,15.85
2022-08-30T09:22:00,sdl,15.38
2022-08-30T09:23:00,sdl,15.33
2022-08-30T09:24:00,sdl,15.72
2022-08-30T09:25:00,sdl,15.49
2022-08-30T09:26:00,sdl,15.50
2022-08-30T09:27:00,sdl,15.35
2022-08-30T09:28:00,sdl,15.60
2022-08-30T09:29:00,sdl,15.20
2022-08-30T09:30:00,sdl,15.29
2022-08-30T09:31:00,sdl,15.27
2022-08-30T09:32:00,sdl,15.24
2022-08-30T09:33:00,sdl,17.60
2022-08-30T09:34:00,sdl,17.47
2022-08-30T09:35:00,sdl,17.53
2022-08-30T09:36:00,sdl,18.68
2022-08-30T09:37:00,sdl,19.54
2022-08-30T09:38:00,sdl,18.87
2022-08-30T09:39:00,sdl,19.02
2022-08-30T09:40:00,sdl,18.88
2022-08-30T09:41:00,sdl,19.62
2022-08-30T09:42:00,sdl,19.06
2022-08-30T09:43:00,sdl,18.95
2022-08-30T09:44:00,sdl,18.95
2022-08-30T09:45:00,sdl,18.90
2022-08-30T09:46:00,sdl,18.86
2022-08-30T09:47:00,sdl,18.90
2022-08-30T09:48:00,sdl,18.12
2022-08-30T09:49:00,sdl,18.38
2022-08-30T09:50:00,sdl,18.22
2022-08-30T09:51:00,sdl,18.83
2022-08-30T09:52:00,sdl,16.20
2022-08-30T09:53:00,sdl,16.35
2022-08-30T09:54:00,sdl,16.32
2022-08-30T09:55:00,sdl,16.28
2022-08-30T09:56:00,sdl,16.28
2022-08-30T09:57:00,sdl,16.26
2022-08-30T09:58:00,sdl,16.81
2022-08-30T09:59:00,sdl,16.30
2022-08-30T10:00:00,sdl,16.54
2022-08-30T10:01:00,sdl,16.39
2022-08-30T10:02:00,sdl,16.45
2022-08-30T10:03:00,sdl,16.35
2022-08-30T10:04:00,sdl,16.23
2022-08-30T10:05:00,sdl,16.59
2022-08-30T10:06:00,sdl,16.59
2022-08-30T10:07:00,sdl,16.27
2022-08-30T10:08:00,sdl,16.50
2022-08-30T10:09:00,sdl,15.68
2022-08-30T10:10:00,sdl,17.31
2022-08-30T10:11:00,sdl,15.58
2022-08-30T10:12:00,sdl,15.67
2022-08-30T10:13:00,sdl,16.01
2022-08-30T10:14:00,sdl,15.87
2022-08-30T10:15:00,sdl,16.21
2022-08-30T10:16:00,sdl,17.05
2022-08-30T10:17:00,sdl,15.90
2022-08-30T10:18:00,sdl,15.84
2022-08-30T10:19:00,sdl,15.82
2022-08-30T10:20:00,sdl,16.10
2022-08-30T10:21:00,sdl,15.97
2022-08-30T10:22:00,sdl,16.02
2022-08-30T10:23:00,sdl,15.83
2022-08-30T10:24:00,sdl,16.01
2022-08-30T10:25:00,sdl,18.70
2022-08-30T10:26:00,sdl,18.40
2022-08-30T10:27:00,sdl,18.21
2022-08-30T10:28:00,sdl,18.20
2022-08-30T10:29:00,sdl,18.28
2022-08-30T10:30:00,sdl,19.54
2022-08-30T10:31:00,sdl,20.02
2022-08-30T10:32:00,sdl,19.65
2022-08-30T10:33:00,sdl,19.59
2022-08-30T10:34:00,sdl,19.09
2022-08-30T10:35:00,sdl,19.08
2022-08-30T10:36:00,sdl,19.00
2022-08-30T10:37:00,sdl,18.86
2022-08-30T10:38:00,sdl,20.90
2022-08-30T10:39:00,sdl,21.05
2022-08-30T10:40:00,sdl,21.14
2022-08-30T10:41:00,sdl,17.76
2022-08-30T10:42:00,sdl,18.58
2022-08-30T10:43:00,sdl,19.86
2022-08-30T10:44:00,sdl,19.55
2022-08-30T10:45:00,sdl,19.52
2022-08-30T10:46:00,sdl,19.67
2022-08-30T10:47:00,sdl,19.64
2022-08-30T10:48:00,sdl,19.91
2022-08-30T10:49:00,sdl,19.35
2022-08-30T10:50:00,sdl,20.18
2022-08-30T10:51:00,sdl,19.76
2022-08-30T10:52:00,sdl,19.89
2022-08-30T10:53:00,sdl,20.22
2022-08-30T10:54:00,sdl,20.33
2022-08-30T10:55:00,sdl,20.23
2022-08-30T10:56:00,sdl,22.34
2022-08-30T10:57:00,sdl,22.36
2022-08-30T10:58:00,sdl,21.39
2022-08-30T10:59:00,sdl,22.17
2022-08-30T11:00:00,sdl,21.56
2022-08-30T11:01:00,sdl,21.45
2022-08-30T11:02:00,sdl,21.53
2022-08-30T11:03:00,sdl,21.41
2022-08-30T11:04:00,sdl,21.42
2022-08-30T11:05:00,sdl,21.40
2022-08-30T11:06:00,sdl,21.39
2022-08-30T11:07:00,sdl,21.34
2022-08-30T11:08:00,sdl,21.58
2022-08-30T11:09:00,sdl,19.47
2022-08-30T11:10:00,sdl,19.12
2022-08-30T11:11:00,sdl,19.16
2022-08-30T11:12:00,sdl,18.78
2022-08-30T11:13:00,sdl,18.82
2022-08-30T11:14:00,sdl,19.21
2022-08-30T11:15:00,sdl,19.26
2022-08-30T11:16:00,sdl,19.49
2022-08-30T11:17:00,sdl,19.48
2022-08-30T11:18:00,sdl,19.37
2022-08-30T11:19:00,sdl,19.50
2022-08-30T11:20:00,sdl,18.76
2022-08-30T11:21:00,sdl,16.92
2022-08-30T11:22:00,sdl,17.49
2022-08-30T11:23:00,sdl,17.20
2022-08-30T11:24:00,sdl,17.18
2022-08-30T11:25:00,sdl,17.33
2022-08-30T11:26:00,sdl,17.46
2022-08-30T11:27:00,sdl,17.39
2022-08-30T11:28:00,sdl,17.28
2022-08-30T11:29:00,sdl,17.50
2022-08-30T11:30:00,sdl,18.07
2022-08-30T11:31:00,sdl,18.02
2022-08-30T11:32:00,sdl,18.05
2022-08-30T11:33:00,sdl,18.79
2022-08-30T11:34:00,sdl,17.91
2022-08-30T11:35:00,sdl,17.96
2022-08-30T11:36:00,sdl,20.45
2022-08-30T11:37:00,sdl,20.67
2022-08-30T11:38:00,sdl,20.58
2022-08-30T11:39:00,sdl,20.66
2022-08-30T11:40:00,sdl,20.34
2022-08-30T11:41:00,sdl,20.83
2022-08-30T11:42:00,sdl,20.18
2022-08-30T11:43:00,sdl,20.42
2022-08-30T11:44:00,sdl,20.22
2022-08-30T11:45:00,sdl,20.36
2022-08-30T11:46:00,sdl,20.80
2022-08-30T11:47:00,sdl,20.78
2022-08-30T11:48:00,sdl,20.63
2022-08-30T11:49:00,sdl,20.57
2022-08-30T11:50:00,sdl,20.41
2022-08-30T11:51:00,sdl,20.39
2022-08-30T11:52:00,sdl,19.97
2022-08-30T11:53:00,sdl,20.48
2022-08-30T11:54:00,sdl,20.53
2022-08-30T11:55:00,sdl,20.50
2022-08-30T11:56:00,sdl,20.41
2022-08-30T11:57:00,sdl,18.35
2022-08-30T11:58:00,sdl,18.46
2022-08-30T11:59:00,sdl,18.26
2022-08-30T12:00:00,sdl,18.23
2022-08-30T12:01:00,sdl,18.55
2022-08-30T12:02:00,sdl,17.12
2022-08-30T12:03:00,sdl,17.03
2022-08-30T12:04:00,sdl,17.12
2022-08-30T12:05:00,sdl,17.00
2022-08-30T12:06:00,sdl,17.10
2022-08-30T12:07:00,sdl,17.21
2022-08-30T12:08:00,sdl,16.88
2022-08-30T12:09:00,sdl,16.77
2022-08-30T12:10:00,sdl,16.93
2022-08-30T12:11:00,sdl,16.78
2022-08-30T12:12:00,sdl,16.91
2022-08-30T12:13:00,sdl,16.92
2022-08-30T12:14:00,sdl,16.68
2022-08-30T12:15:00,sdl,16.73
2022-08-30T12:16:00,sdl,16.64
2022-08-30T12:17:00,sdl,17.19
2022-08-30T12:18:00,sdl,17.65
2022-08-30T12:19:00,sdl,16.50
2022-08-30T12:20:00,sdl,16.55
2022-08-30T12:21:00,sdl,16.22
2022-08-30T12:22:00,sdl,16.46
2022-08-30T12:23:00,sdl,16.38
2022-08-30T12:24:00,sdl,16.41
2022-08-30T12:25:00,sdl,15.96
2022-08-30T12:26:00,sdl,15.16
2022-08-30T12:27:00,sdl,15.50
2022-08-30T12:28:00,sdl,17.85
2022-08-30T12:29:00,sdl,18.00
2022-08-30T12:30:00,sdl,18.09
2022-08-30T12:31:00,sdl,18.27
2022-08-30T12:32:00,sdl,18.18
2022-08-30T12:33:00,sdl,18.23
2022-08-30T12:34:00,sdl,18.29
2022-08-30T12:35:00,sdl,18.40
2022-08-30T12:36:00,sdl,18.27
2022-08-30T12:37:00,sdl,18.77
2022-08-30T12:38:00,sdl,18.61
2022-08-30T12:39:00,sdl,18.66
2022-08-30T12:40:00,sdl,18.64
2022-08-30T12:41:00,sdl,18.66
2022-08-30T12:42:00,sdl,18.78
2022-08-30T12:43:00,sdl,16.56
2022-08-30T12:44:00,sdl,16.45
2022-08-30T12:45:00,sdl,16.44
2022-08-30T12:46:00,sdl,16.97
2022-08-30T12:47:00,sdl,17.07
2022-08-30T12:48:00,sdl,17.09
2022-08-30T12:49:00,sdl,16.86
2022-08-30T12:50:00,sdl,16.43
2022-08-30T12:51:00,sdl,16.55
2022-08-30T12:52:00,sdl,16.51
2022-08-30T12:53:00,sdl,16.62
2022-08-30T12:54:00,sdl,16.79
2022-08-30T12:55:00,sdl,16.80
2022-08-30T12:56:00,sdl,16.59
2022-08-30T12:57:00,sdl,16.64
2022-08-30T12:58:00,sdl,18.72
2022-08-30T12:59:00,sdl,18.85
2022-08-30T13:00:00,sdl,19.77
2022-08-30T13:01:00,sdl,20.17
2022-08-30T13:02:00,sdl,19.86
2022-08-30T13:03:00,sdl,19.88
2022-08-30T13:04:00,sdl,19.89
2022-08-30T13:05:00,sdl,19.90
2022-08-30T13:06:00,sdl,19.94
2022-08-30T13:07:00,sdl,19.48
2022-08-30T13:08:00,sdl,19.56
2022-08-30T13:09:00,sdl,16.94
2022-08-30T13:10:00,sdl,17.23
2022-08-30T13:11:00,sdl,17.64
2022-08-30T13:12:00,sdl,17.62
2022-08-30T13:13:00,sdl,15.55
2022-08-30T13:14:00,sdl,15.68
2022-08-30T13:15:00,sdl,15.68
2022-08-30T13:16:00,sdl,15.78
2022-08-30T13:17:00,sdl,15.95
2022-08-30T13:18:00,sdl,16.15
2022-08-30T13:19:00,sdl,16.55
2022-08-30T13:20:00,sdl,16.64
2022-08-30T13:21:00,sdl,17.16
2022-08-30T13:22:00,sdl,16.85
2022-08-30T13:23:00,sdl,16.72
2022-08-30T13:24:00,sdl,18.19
2022-08-30T13:25:00,sdl,18.58
2022-08-30T13:26:00,sdl,18.12
2022-08-30T13:27:00,sdl,18.15
2022-08-30T13:28:00,sdl,18.19
2022-08-30T13:29:00,sdl,18.12
2022-08-30T13:30:00,sdl,18.04